EHI
0 0 0 0 0 0 0 0 0 0 0 0 0 0 0 0 0 0 0 0 0 0 0 0 1 3 1 0 1 3 4 6 6 5 3 2 1 0 0 0 0 0 0 0
0 0 0 0 0 0 0 0 0 0 0 0 0 0 0 0 0 0 0 0 0 0 0 0 1 2 1 1 2 3 4 5 5 4 3 2 1 0 0 0 0 0 0 0
0 0 0 0 0 0 0 0 0 0 0 0 0 0 0 0 0 0 0 0 0 0 0 0 1 1 1 2 3 3 3 4 4 3 3 3 2 1 0 0 0 0 0 0
0 0 0 0 0 0 0 0 0 0 0 0 0 0 0 0 0 0 0 0 0 0 0 0 1 0 0 1 3 3 3 3 3 3 3 3 2 1 0 0 0 0 0 0
0 0 0 0 0 0 0 0 0 0 0 0 0 0 0 0 0 0 0 0 0 0 0 0 0 0 0 1 2 3 3 3 3 3 3 3 2 0 0 0 0 0 0 0
0 0 0 0 0 0 0 0 0 0 0 0 0 0 0 0 0 0 0 0 0 0 0 0 0 0 0 1 2 2 2 3 3 3 3 2 1 0 0 0 0 0 0 0
0 0 0 0 0 0 0 0 0 0 0 0 0 0 0 0 0 0 0 0 0 0 0 0 0 0 0 0 1 1 1 1 2 2 2 1 1 0 0 0 0 0 0 0
0 0 0 0 0 0 0 0 0 0 0 0 0 0 0 0 0 0 0 0 0 0 0 0 0 0 0 0 0 0 0 0 1 2 1 0 0 0 0 0 0 0 0 0
0 0 0 0 0 0 0 0 0 0 0 0 0 0 0 0 0 0 0 0 0 0 0 0 0 0 0 0 0 0 0 0 1 2 1 0 0 0 0 0 0 0 0 0
0 0 0 0 0 0 0 0 0 0 0 0 0 0 0 0 0 0 0 0 0 0 0 0 0 0 0 0 0 0 0 0 1 1 1 0 0 0 0 0 0 0 0 0
0 0 0 0 0 0 0 0 0 0 0 0 0 0 0 0 0 0 0 0 0 0 0 0 0 0 0 0 0 0 0 0 0 0 0 0 0 0 0 0 0 0 0 0
0 0 0 0 0 0 0 0 0 0 0 0 0 0 0 0 0 0 0 0 0 0 0 0 0 0 0 0 0 0 0 0 0 0 0 0 0 0 0 0 0 0 0 0
0 0 0 0 0 0 0 0 0 0 0 0 0 0 0 0 0 0 0 0 0 0 0 0 0 0 0 0 0 0 0 0 0 0 0 0 0 0 0 0 0 0 0 0
0 0 0 0 0 0 0 0 0 0 0 0 0 0 0 0 0 0 0 0 0 0 0 0 0 0 0 0 0 0 0 0 0 0 0 0 0 0 0 0 0 0 0 0
0 0 0 0 0 0 0 0 0 0 0 0 0 0 0 0 0 0 0 0 0 0 0 0 0 0 0 0 0 0 0 0 0 0 0 0 0 0 0 0 0 0 0 0
0 0 0 0 0 0 0 0 0 0 0 0 0 0 0 0 0 0 0 0 0 0 0 0 0 0 0 0 0 0 0 0 0 0 0 0 0 0 0 0 0 0 0 0
0 0 0 0 0 0 0 0 0 0 0 0 0 0 0 0 0 0 0 0 0 0 0 0 0 0 0 0 0 0 0 0 0 0 0 0 0 0 0 0 0 0 0 0
0 0 0 0 0 0 0 0 0 0 0 0 0 0 0 0 0 0 0 0 0 0 0 0 0 0 0 0 0 0 0 0 0 0 0 0 0 0 0 0 0 0 0 0
0 0 0 0 0 0 0 0 0 0 0 0 0 0 0 0 0 0 0 0 0 0 0 0 0 0 0 0 0 0 0 0 0 0 0 0 0 0 0 0 0 0 0 0
0 0 0 0 0 0 0 0 0 0 0 0 0 0 0 0 0 0 0 0 0 0 0 0 0 0 0 0 0 0 0 0 0 0 0 0 0 0 0 0 0 0 0 0
0 0 0 0 0 0 0 0 0 0 0 0 0 0 0 0 0 0 0 0 0 0 0 0 0 0 0 0 0 0 0 0 0 0 0 0 0 0 0 0 0 0 0 0
0 0 0 0 0 0 0 0 0 0 0 0 0 0 0 0 0 0 0 0 0 0 0 0 0 0 0 0 0 0 0 0 0 0 0 0 0 0 0 0 0 0 0 0
0 0 0 0 0 0 0 0 0 0 0 0 0 0 0 0 0 0 0 0 0 0 0 0 0 0 0 0 0 0 0 0 0 0 0 0 0 0 0 0 0 0 0 0
0 0 0 0 0 0 0 0 0 0 0 0 0 0 0 0 0 0 0 0 0 0 0 0 0 0 0 0 0 0 0 0 0 0 0 0 0 0 0 0 0 0 0 0
0 0 0 0 0 0 0 0 0 0 0 0 0 0 0 0 0 0 0 0 0 0 0 0 0 0 0 0 0 0 0 0 0 0 0 0 0 0 0 0 0 0 0 0
0 0 0 0 0 0 0 0 0 0 0 0 0 0 0 0 0 0 0 0 0 0 0 0 0 0 0 0 0 0 0 0 0 0 0 0 0 0 0 0 0 0 0 0
Wind_Speed
0 1 2 3 4 5 5 6 8 7 5 8 11 14 12 8 7 7 5 5 5 6 6 5 4 3 3 2 2 2 2 2 2 2 2 2 2 2 2 2 2 3 3 3
2 2 3 3 2 4 5 7 8 7 5 8 11 14 10 5 5 4 5 5 5 7 6 5 4 3 3 2 2 3 2 2 3 2 2 2 2 2 2 2 2 2 3 3
2 1 2 2 2 4 6 7 7 8 9 6 8 9 6 3 3 3 4 4 5 6 6 5 4 3 3 2 2 2 2 3 3 2 1 1 1 1 1 2 2 3 3 3
1 2 2 2 3 5 6 4 7 8 7 4 4 7 4 3 3 3 4 4 5 6 6 5 4 3 3 3 2 2 2 2 2 2 2 2 1 1 3 3 2 2 3 3
1 2 2 3 4 5 4 5 6 6 6 6 4 7 6 2 4 5 4 4 5 5 5 5 4 3 3 2 2 2 2 2 1 1 2 2 2 2 2 1 1 2 2 3
2 2 2 3 3 3 4 4 2 3 4 6 4 6 5 1 4 5 4 4 4 4 4 4 4 3 3 2 2 2 2 2 2 1 1 2 3 2 2 2 1 1 1 2
2 1 1 2 3 0 2 2 2 3 4 3 1 6 5 3 4 5 5 4 5 4 4 4 4 4 3 3 3 2 1 2 2 2 2 3 3 3 3 3 2 2 2 2
2 1 1 2 3 2 2 3 3 4 4 4 2 6 2 2 4 5 5 4 4 5 4 4 5 4 3 3 3 3 2 2 2 2 2 3 3 3 3 3 3 3 3 3
2 2 2 2 3 2 1 1 2 2 3 6 5 4 4 1 4 5 5 5 5 5 5 5 5 5 4 4 3 3 3 3 3 2 3 3 3 3 3 3 3 3 3 3
2 3 2 2 1 1 2 0 1 2 4 6 5 4 3 3 5 6 6 6 6 6 6 6 5 5 4 3 3 3 3 3 3 3 3 3 3 3 3 2 2 3 3 3
2 2 2 1 2 1 1 1 2 2 3 5 6 3 2 3 4 6 6 6 6 7 6 6 6 5 4 3 3 3 3 3 3 3 3 3 3 2 2 2 2 3 3 3
1 2 3 3 1 2 2 2 2 2 3 4 6 5 3 2 5 6 7 7 7 7 7 6 6 5 4 4 3 3 4 3 3 3 3 3 3 3 3 3 3 3 3 3
2 2 3 2 3 2 2 2 2 2 2 4 6 5 2 3 6 7 7 8 7 7 7 6 5 5 5 4 4 4 4 4 3 3 3 3 3 3 3 3 3 3 3 3
2 3 5 6 3 1 5 5 5 5 5 6 9 12 8 8 9 9 8 8 7 7 7 7 6 6 6 5 4 4 4 3 3 3 3 3 3 3 3 4 4 3 3 3
2 4 5 8 8 7 9 9 8 10 10 9 10 11 12 10 9 9 9 8 8 8 8 8 7 6 6 6 5 5 4 4 3 3 3 4 3 3 3 4 4 3 3 3
1 3 3 6 6 7 11 12 11 12 12 14 15 15 9 8 7 8 8 8 8 8 8 8 8 7 6 6 6 5 5 4 4 4 4 4 3 3 3 3 3 3 3 3
3 3 3 4 3 6 9 8 10 8 8 9 10 9 7 8 8 8 8 7 7 7 7 8 7 7 6 6 6 5 5 4 4 4 4 3 3 3 3 3 3 3 3 3
4 3 2 3 3 7 1 1 4 8 9 9 9 9 8 8 9 8 6 6 7 7 7 7 6 6 6 6 6 5 4 4 4 4 3 3 3 3 3 3 3 3 3 3
4 4 3 3 5 9 4 2 3 5 7 6 9 9 8 8 7 4 4 5 7 7 7 6 6 6 6 6 6 5 4 4 4 4 4 4 4 4 4 3 3 3 3 3
2 3 3 4 5 7 1 2 1 2 6 2 4 7 6 5 6 4 5 7 7 7 6 5 5 5 5 5 5 4 4 4 4 5 5 5 4 4 4 4 4 3 3 2
4 4 6 7 7 9 1 3 4 4 3 2 4 5 5 5 6 6 7 7 6 6 5 5 5 4 5 5 4 4 4 4 5 5 5 5 4 4 3 3 3 3 2 3
8 7 7 6 8 8 5 5 6 4 3 3 4 4 5 7 7 7 7 7 6 5 5 4 4 4 4 4 4 4 4 5 5 4 4 4 4 4 3 3 3 3 2 2
8 7 5 8 7 2 5 6 4 3 4 4 4 5 6 7 7 7 7 6 5 5 4 4 4 4 4 4 4 4 5 5 4 4 4 4 5 4 3 3 3 3 2 2
6 4 5 8 10 8 8 8 7 6 6 6 6 6 6 7 7 6 6 6 5 4 3 3 3 4 4 4 4 4 4 4 4 4 4 4 4 4 4 3 3 3 2 2
5 7 6 9 9 8 8 9 8 7 7 7 6 6 6 6 6 6 5 5 5 3 3 3 3 3 4 4 4 4 4 4 3 3 3 4 3 3 4 4 3 4 3 3
8 10 9 8 6 5 6 4 6 7 8 7 6 6 5 5 5 5 5 4 3 3 3 2 3 3 3 3 4 4 4 3 3 3 3 3 3 3 3 3 3 5 4 6
Wind_Direction
74 207 235 254 252 264 265 263 269 278 287 275 268 272 276 275 269 274 277 277 282 288 300 302 300 293 278 276 284 265 233 229 223 213 222 228 234 246 261 226 195 194 206 206
185 237 280 283 261 249 248 263 275 283 289 281 281 278 272 268 262 271 284 294 297 302 312 316 318 310 299 284 277 252 238 234 226 225 227 234 241 251 260 224 201 201 205 210
239 316 302 242 248 256 255 257 277 290 300 271 286 270 240 254 249 291 297 300 311 310 310 310 308 303 303 300 284 260 257 254 238 218 188 215 239 272 280 253 221 208 210 211
296 301 274 258 263 272 267 270 277 285 287 284 291 284 257 263 265 296 311 311 311 318 317 307 303 306 304 301 289 278 282 267 236 202 199 213 225 252 270 264 243 220 218 219
297 317 293 269 284 277 277 296 282 277 267 273 248 260 269 255 274 286 298 314 315 324 326 315 317 320 320 315 312 312 304 289 276 227 223 241 241 256 275 277 258 259 231 222
284 289 300 300 306 278 276 266 245 234 242 254 242 244 274 275 297 302 304 317 319 319 331 331 344 344 339 337 327 318 301 305 315 297 255 251 248 254 263 263 267 267 260 241
304 224 338 309 306 234 305 286 263 232 227 249 186 247 266 356 342 324 318 322 327 322 334 336 344 342 343 342 334 303 301 309 313 308 278 265 258 246 242 241 237 251 249 255
297 291 33 355 322 311 312 294 287 289 296 307 230 253 289 11 340 334 328 333 337 335 343 339 334 333 331 334 329 325 315 296 296 296 289 277 273 259 251 246 242 241 248 252
289 297 25 353 329 304 257 226 328 291 287 276 261 275 277 323 334 340 342 343 340 337 340 336 333 328 330 332 330 323 313 304 300 298 293 279 271 271 267 257 262 259 255 254
288 277 302 327 255 41 329 151 216 238 285 283 281 266 298 319 331 332 338 336 332 334 334 333 330 324 329 333 330 323 313 312 318 310 299 292 284 284 282 268 261 268 267 266
259 259 289 263 253 273 179 189 230 244 282 286 295 300 38 314 330 328 332 333 331 330 329 330 329 328 328 332 332 329 325 322 321 321 319 312 312 309 298 285 277 272 271 267
228 260 266 260 315 319 264 241 207 253 251 256 279 287 78 330 327 327 325 328 329 328 328 331 333 333 335 333 330 326 324 318 319 317 312 321 320 316 308 302 298 282 270 264
182 221 269 229 182 180 242 244 246 256 254 243 259 274 81 326 324 327 324 326 328 329 330 332 335 337 337 332 327 325 323 314 317 315 314 316 313 314 310 303 295 289 278 273
202 229 243 267 305 256 258 253 233 219 237 250 251 275 293 311 321 323 322 323 327 329 329 331 331 333 336 336 332 326 321 319 324 320 312 312 313 310 303 297 290 288 284 273
220 244 250 267 276 267 261 256 236 228 239 252 270 277 290 308 312 313 313 318 324 327 331 332 330 332 336 339 336 334 330 331 333 324 320 316 313 308 303 299 297 294 291 286
200 240 261 266 266 269 268 258 245 243 248 254 270 279 293 304 305 307 312 317 318 320 326 328 328 329 330 333 334 333 331 330 329 323 319 317 314 312 307 304 302 298 292 295
184 193 242 266 307 284 261 240 223 228 233 241 253 274 309 305 304 305 309 310 307 313 320 322 322 322 325 326 327 326 323 324 325 321 319 318 316 312 311 309 305 302 301 304
179 183 229 280 289 251 278 92 224 236 246 239 259 282 296 304 306 297 298 304 309 314 318 320 320 322 324 326 327 324 322 326 325 324 325 325 326 322 317 314 312 310 308 307
209 197 213 241 267 274 271 219 210 232 262 242 256 277 296 314 301 287 326 321 311 311 312 315 319 318 318 321 325 327 331 333 334 336 332 327 327 326 323 320 316 315 309 308
149 198 216 219 250 259 295 113 150 221 264 236 255 278 300 316 300 317 337 323 317 317 316 320 323 322 320 325 328 331 337 339 340 337 329 326 326 321 320 319 316 314 317 308
176 193 214 226 247 267 284 140 172 225 300 347 276 281 285 271 289 314 316 314 315 317 318 321 321 322 324 327 329 331 335 339 336 332 327 327 327 324 323 321 321 324 328 329
195 193 200 202 226 252 146 162 211 267 337 305 295 287 280 283 297 302 304 307 312 317 320 322 323 326 330 333 334 332 336 337 337 336 333 336 339 338 334 334 336 336 334 335
217 215 211 213 234 299 181 217 250 277 275 285 286 289 282 284 289 296 302 306 306 310 315 320 321 324 330 336 335 332 334 336 338 342 342 345 346 350 348 346 344 340 342 342
221 207 232 253 258 257 251 252 254 253 262 275 279 281 277 279 286 291 295 300 304 305 308 315 316 321 330 338 340 337 334 335 339 346 347 350 353 358 359 355 350 347 345 343
225 186 220 251 267 275 253 241 249 258 262 269 275 275 271 274 278 282 286 293 299 301 305 305 309 316 326 334 339 343 344 348 353 353 352 354 355 355 360 2 359 350 345 340
207 201 209 241 240 241 270 267 258 256 257 261 269 274 275 267 270 276 280 287 292 295 300 303 311 319 326 335 342 347 350 354 353 352 353 355 356 353 354 354 359 11 360 358